| time (UTC) | temp C | wind direction | speed KPH | gust KPH | rain 1hr cm | rain 24hr cm | rain mn cm | humidity % | barometer mb |
| 20260508134505 | 13 | 15 | 0.0 | 0.0 | 0.00 | 0.13 | 0.00 | 83 | 1017.3 |
| 20260508134005 | 13 | 15 | 0.0 | 0.0 | 0.00 | 0.13 | 0.00 | 83 | 1017.3 |
| 20260508133506 | 13 | 15 | 0.0 | 0.0 | 0.00 | 0.13 | 0.00 | 83 | 1017.3 |
| 20260508133005 | 13 | 15 | 0.0 | 0.0 | 0.00 | 0.13 | 0.00 | 86 | 1017.3 |
| 20260508131005 | 12 | 290 | 0.0 | 0.0 | 0.00 | 0.13 | 0.00 | 91 | 1017.3 |
| 20260508130005 | 12 | 290 | 0.0 | 0.0 | 0.00 | 0.13 | 0.00 | 91 | 1015.9 |
| 20260508125504 | 11 | 290 | 0.0 | 0.0 | 0.00 | 0.15 | 0.00 | 92 | 1015.9 |
| 20260508125005 | 11 | 290 | 0.0 | 0.0 | 0.00 | 0.15 | 0.00 | 92 | 1015.9 |
| 20260508124505 | 11 | 290 | 0.0 | 0.0 | 0.00 | 0.15 | 0.00 | 92 | 1015.9 |
| 20260508124005 | 11 | 290 | 0.0 | 0.0 | 0.00 | 0.15 | 0.00 | 92 | 1015.9 |
| 20260508123006 | 11 | 290 | 0.0 | 0.0 | 0.00 | 0.15 | 0.00 | 93 | 1015.9 |
| 20260508122506 | 10 | 290 | 0.0 | 0.0 | 0.00 | 0.15 | 0.00 | 93 | 1015.9 |
| 20260508122005 | 10 | 290 | 0.0 | 0.0 | 0.00 | 0.15 | 0.00 | 93 | 1015.9 |
| 20260508121505 | 10 | 290 | 0.0 | 0.0 | 0.00 | 0.15 | 0.00 | 93 | 1015.9 |
| 20260508121005 | 9 | 290 | 0.0 | 0.0 | 0.00 | 0.15 | 0.00 | 93 | 1015.9 |
| 20260508120505 | 9 | 290 | 0.0 | 0.0 | 0.00 | 0.15 | 0.00 | 93 | 1015.9 |
| 20260508120006 | 9 | 290 | 0.0 | 0.0 | 0.00 | 0.15 | 0.00 | 93 | 1015.9 |
| 20260508115505 | 9 | 290 | 0.0 | 0.0 | 0.00 | 0.15 | 0.00 | 93 | 1015.9 |
| 20260508115005 | 8 | 290 | 0.0 | 0.0 | 0.00 | 0.18 | 0.00 | 93 | 1015.9 |
| 20260508114504 | 8 | 290 | 0.0 | 0.0 | 0.00 | 0.18 | 0.00 | 92 | 1015.9 |
| 20260508114006 | 8 | 290 | 0.0 | 0.0 | 0.00 | 0.18 | 0.00 | 92 | 1015.9 |
| 20260508113504 | 8 | 290 | 0.0 | 0.0 | 0.00 | 0.18 | 0.00 | 92 | 1015.9 |
| 20260508113006 | 8 | 290 | 0.0 | 0.0 | 0.00 | 0.18 | 0.00 | 92 | 1015.9 |
| 20260508112505 | 8 | 290 | 0.0 | 0.0 | 0.00 | 0.18 | 0.00 | 92 | 1015.9 |
| 20260508112005 | 8 | 290 | 0.0 | 0.0 | 0.00 | 0.18 | 0.00 | 92 | 1014.2 |
| 20260508111505 | 8 | 290 | 0.0 | 0.0 | 0.00 | 0.18 | 0.00 | 92 | 1014.2 |
| 20260508111005 | 8 | 290 | 0.0 | 0.0 | 0.00 | 0.18 | 0.00 | 92 | 1014.2 |
| 20260508110505 | 8 | 290 | 0.0 | 0.0 | 0.00 | 0.18 | 0.00 | 92 | 1014.2 |
| 20260508105505 | 8 | 290 | 0.0 | 0.0 | 0.00 | 0.18 | 0.00 | 92 | 1014.2 |
| 20260508105005 | 8 | 290 | 0.0 | 0.0 | 0.00 | 0.18 | 0.00 | 92 | 1014.2 |
| 20260508104504 | 8 | 290 | 0.0 | 0.0 | 0.00 | 0.20 | 0.00 | 92 | 1014.2 |
| 20260508103505 | 9 | 290 | 0.0 | 0.0 | 0.00 | 0.20 | 0.00 | 92 | 1014.2 |
| 20260508102505 | 9 | 290 | 0.0 | 0.0 | 0.00 | 0.20 | 0.00 | 92 | 1014.2 |
| 20260508102005 | 9 | 290 | 0.0 | 0.0 | 0.00 | 0.20 | 0.00 | 92 | 1014.2 |
| 20260508101505 | 9 | 290 | 0.0 | 0.0 | 0.00 | 0.20 | 0.00 | 92 | 1014.2 |
| 20260508101005 | 9 | 290 | 0.0 | 0.0 | 0.00 | 0.23 | 0.00 | 92 | 1014.2 |
| 20260508100505 | 9 | 290 | 0.0 | 0.0 | 0.00 | 0.25 | 0.00 | 92 | 1014.2 |
| 20260508100005 | 9 | 290 | 0.0 | 0.0 | 0.00 | 0.25 | 0.00 | 92 | 1014.2 |
| 20260508095506 | 9 | 290 | 0.0 | 0.0 | 0.00 | 0.25 | 0.00 | 92 | 1014.2 |
| 20260508095005 | 9 | 290 | 0.0 | 0.0 | 0.00 | 0.25 | 0.00 | 92 | 1014.2 |
| 20260508094505 | 10 | 290 | 0.0 | 0.0 | 0.00 | 0.25 | 0.00 | 92 | 1014.2 |
| 20260508093505 | 10 | 290 | 0.0 | 0.0 | 0.00 | 0.25 | 0.00 | 92 | 1014.2 |
| 20260508093006 | 10 | 290 | 0.0 | 0.0 | 0.00 | 0.25 | 0.00 | 92 | 1014.2 |
| 20260508092505 | 10 | 290 | 0.0 | 0.0 | 0.00 | 0.25 | 0.00 | 92 | 1014.2 |
| 20260508092005 | 10 | 290 | 0.0 | 0.0 | 0.00 | 0.25 | 0.00 | 92 | 1014.2 |
| 20260508091506 | 10 | 290 | 0.0 | 0.0 | 0.00 | 0.25 | 0.00 | 92 | 1014.2 |
| 20260508091006 | 10 | 290 | 0.0 | 0.0 | 0.00 | 0.25 | 0.00 | 92 | 1014.2 |
| 20260508090505 | 10 | 290 | 0.0 | 0.0 | 0.00 | 0.25 | 0.00 | 92 | 1014.2 |
| 20260508090005 | 10 | 290 | 0.0 | 0.0 | 0.00 | 0.25 | 0.00 | 92 | 1014.2 |
| 20260508085505 | 10 | 290 | 0.0 | 0.0 | 0.00 | 0.25 | 0.00 | 92 | 1014.2 |
| 20260508085006 | 10 | 290 | 0.0 | 0.0 | 0.00 | 0.25 | 0.00 | 92 | 1014.2 |
| 20260508084505 | 10 | 290 | 0.0 | 0.0 | 0.00 | 0.25 | 0.00 | 92 | 1014.2 |
| 20260508084005 | 10 | 290 | 0.0 | 0.0 | 0.00 | 0.25 | 0.00 | 92 | 1014.2 |
| 20260508083506 | 11 | 290 | 0.0 | 0.0 | 0.00 | 0.28 | 0.00 | 92 | 1014.2 |
| 20260508083006 | 11 | 290 | 0.0 | 0.0 | 0.00 | 0.28 | 0.00 | 92 | 1013.8 |
| 20260508082506 | 11 | 290 | 0.0 | 0.0 | 0.00 | 0.33 | 0.00 | 92 | 1013.8 |
| 20260508082005 | 11 | 290 | 0.0 | 0.0 | 0.00 | 0.36 | 0.00 | 91 | 1013.8 |
| 20260508081505 | 11 | 290 | 0.0 | 0.0 | 0.00 | 0.41 | 0.00 | 91 | 1013.8 |
| 20260508081006 | 11 | 290 | 0.0 | 0.0 | 0.00 | 0.43 | 0.00 | 92 | 1013.8 |
| 20260508080505 | 11 | 290 | 0.0 | 0.0 | 0.00 | 0.48 | 0.00 | 92 | 1013.8 |
| 20260508080005 | 11 | 290 | 0.0 | 0.0 | 0.00 | 0.51 | 0.00 | 91 | 1013.8 |
| 20260508075505 | 11 | 290 | 0.0 | 0.0 | 0.00 | 0.58 | 0.00 | 91 | 1013.8 |
| 20260508075006 | 11 | 290 | 0.0 | 0.0 | 0.00 | 0.61 | 0.00 | 91 | 1013.8 |
| 20260508074505 | 11 | 290 | 0.0 | 0.0 | 0.00 | 0.64 | 0.00 | 91 | 1013.8 |
| 20260508074005 | 11 | 290 | 0.0 | 0.0 | 0.00 | 0.66 | 0.00 | 91 | 1013.8 |
| 20260508073505 | 11 | 290 | 0.0 | 0.0 | 0.00 | 0.71 | 0.00 | 91 | 1013.8 |
| 20260508073005 | 11 | 290 | 0.0 | 0.0 | 0.00 | 0.74 | 0.00 | 91 | 1013.8 |
| 20260508072005 | 11 | 290 | 0.0 | 0.0 | 0.00 | 0.81 | 0.00 | 91 | 1013.8 |
| 20260508071504 | 11 | 290 | 0.0 | 0.0 | 0.00 | 0.84 | 0.00 | 91 | 1013.8 |
| 20260508071006 | 11 | 290 | 0.0 | 0.0 | 0.00 | 0.89 | 0.00 | 91 | 1014.5 |
| 20260508070505 | 11 | 290 | 0.0 | 0.0 | 0.00 | 0.94 | 0.00 | 91 | 1014.5 |
| 20260508070005 | 11 | 290 | 0.0 | 0.0 | 0.00 | 0.97 | 0.00 | 91 | 1014.5 |
| 20260508065006 | 12 | 290 | 0.0 | 0.0 | 0.00 | 1.24 | 0.00 | 91 | 1014.5 |
| 20260508064505 | 12 | 290 | 0.0 | 0.0 | 0.00 | 1.35 | 0.00 | 91 | 1014.5 |
| 20260508064005 | 12 | 290 | 0.0 | 0.0 | 0.00 | 1.35 | 0.00 | 91 | 1014.5 |
| 20260508063506 | 12 | 290 | 0.0 | 0.0 | 0.00 | 1.37 | 0.00 | 91 | 1014.5 |
| 20260508063007 | 12 | 290 | 0.0 | 0.0 | 0.00 | 1.37 | 0.00 | 91 | 1014.5 |
| 20260508062505 | 12 | 290 | 0.0 | 0.0 | 0.00 | 1.40 | 0.00 | 91 | 1014.5 |
| 20260508061505 | 12 | 290 | 0.0 | 0.0 | 0.00 | 1.40 | 0.00 | 91 | 1014.5 |
| 20260508061007 | 12 | 290 | 0.0 | 0.0 | 0.00 | 1.40 | 0.00 | 91 | 1014.6 |
| 20260508060506 | 12 | 290 | 0.0 | 0.0 | 0.00 | 1.40 | 0.00 | 91 | 1014.6 |
| 20260508060005 | 12 | 290 | 0.0 | 0.0 | 0.00 | 1.40 | 0.00 | 91 | 1014.6 |
| 20260508055504 | 12 | 290 | 0.0 | 0.0 | 0.00 | 1.40 | 0.00 | 91 | 1014.6 |
| 20260508055005 | 12 | 290 | 0.0 | 0.0 | 0.00 | 1.40 | 0.00 | 91 | 1014.6 |
| 20260508054505 | 12 | 290 | 0.0 | 0.0 | 0.00 | 1.42 | 0.00 | 91 | 1014.6 |
| 20260508054005 | 12 | 290 | 0.0 | 0.0 | 0.00 | 1.42 | 0.00 | 91 | 1014.6 |
| 20260508053005 | 12 | 290 | 0.0 | 0.0 | 0.00 | 1.45 | 0.00 | 91 | 1011.9 |
| 20260508052505 | 12 | 290 | 0.0 | 0.0 | 0.00 | 1.50 | 0.00 | 91 | 1011.9 |
| 20260508052006 | 12 | 290 | 0.0 | 0.0 | 0.00 | 1.57 | 0.00 | 91 | 1011.9 |
| 20260508051505 | 12 | 290 | 0.0 | 0.0 | 0.00 | 1.57 | 0.00 | 91 | 1011.9 |
| 20260508051005 | 12 | 290 | 0.0 | 3.2 | 0.00 | 1.57 | 0.00 | 91 | 1011.9 |
| 20260508050505 | 12 | 290 | 0.0 | 3.2 | 0.00 | 1.57 | 0.00 | 90 | 1011.9 |
| 20260508050005 | 12 | 290 | 0.0 | 0.0 | 0.00 | 1.57 | 0.00 | 90 | 1011.9 |
| 20260508045505 | 13 | 290 | 0.0 | 0.0 | 0.00 | 1.57 | 0.00 | 90 | 1011.9 |
| 20260508044505 | 13 | 290 | 0.0 | 0.0 | 0.00 | 1.57 | 0.00 | 90 | 1011.9 |
| 20260508044005 | 13 | 290 | 0.0 | 0.0 | 0.00 | 1.57 | 0.00 | 90 | 1011.9 |
| 20260508043006 | 13 | 290 | 0.0 | 0.0 | 0.00 | 1.60 | 0.00 | 90 | 1011.9 |
| 20260508042505 | 13 | 290 | 0.0 | 0.0 | 0.00 | 1.60 | 0.00 | 90 | 1011.9 |
| 20260508041505 | 13 | 290 | 0.0 | 0.0 | 0.00 | 1.60 | 0.00 | 90 | 1011.9 |
| 20260508041005 | 13 | 290 | 0.0 | 0.0 | 0.00 | 1.60 | 0.00 | 90 | 1011.9 |
| 20260508040005 | 13 | 290 | 0.0 | 0.0 | 0.00 | 1.60 | 0.00 | 90 | 1011.9 |
| 20260508034505 | 13 | 290 | 0.0 | 0.0 | 0.00 | 1.60 | 1.37 | 89 | 1011.9 |
| 20260508034005 | 13 | 290 | 0.0 | 0.0 | 0.00 | 1.60 | 1.37 | 89 | 1011.9 |
| 20260508032505 | 14 | 290 | 0.0 | 0.0 | 0.00 | 1.60 | 1.37 | 89 | 1011.9 |
| 20260508032005 | 14 | 290 | 0.0 | 0.0 | 0.00 | 1.60 | 1.37 | 89 | 1011.9 |
| 20260508031505 | 14 | 290 | 0.0 | 0.0 | 0.00 | 1.60 | 1.37 | 88 | 1011.9 |
| 20260508031005 | 14 | 290 | 0.0 | 0.0 | 0.00 | 1.60 | 1.37 | 88 | 1011.9 |
| 20260508030506 | 15 | 290 | 0.0 | 0.0 | 0.00 | 1.60 | 1.37 | 88 | 1011.9 |
| 20260508030005 | 15 | 290 | 0.0 | 0.0 | 0.00 | 1.60 | 1.37 | 88 | 1011.9 |
| 20260508025505 | 15 | 290 | 0.0 | 0.0 | 0.00 | 1.60 | 1.37 | 88 | 1011.9 |
| 20260508024005 | 15 | 290 | 0.0 | 0.0 | 0.00 | 1.63 | 1.37 | 87 | 1011.9 |
| 20260508023505 | 15 | 290 | 0.0 | 0.0 | 0.00 | 1.63 | 1.37 | 87 | 1011.9 |
| 20260508023006 | 15 | 290 | 0.0 | 0.0 | 0.00 | 1.63 | 1.37 | 87 | 1011.9 |
| 20260508022505 | 15 | 290 | 0.0 | 0.0 | 0.00 | 1.63 | 1.37 | 87 | 1011.9 |
| 20260508021005 | 16 | 290 | 0.0 | 0.0 | 0.00 | 1.68 | 1.37 | 86 | 1011.9 |
| 20260508020005 | 16 | 290 | 0.0 | 0.0 | 0.00 | 1.68 | 1.37 | 85 | 1011.9 |
| 20260508015506 | 16 | 290 | 0.0 | 0.0 | 0.00 | 1.68 | 1.37 | 85 | 1011.9 |
| 20260508015006 | 16 | 290 | 0.0 | 1.6 | 0.00 | 1.68 | 1.37 | 85 | 1011.9 |
| 20260508014504 | 16 | 290 | 0.0 | 0.0 | 0.00 | 1.68 | 1.37 | 84 | 1011.9 |
| 20260508013505 | 16 | 290 | 0.0 | 0.0 | 0.00 | 1.68 | 1.37 | 84 | 1011.9 |
| 20260508013006 | 16 | 290 | 0.0 | 1.6 | 0.00 | 1.68 | 1.37 | 84 | 1011.9 |
| 20260508012505 | 16 | 290 | 0.0 | 1.6 | 0.00 | 1.68 | 1.37 | 83 | 1011.9 |
| 20260508012006 | 16 | 290 | 0.0 | 3.2 | 0.00 | 1.68 | 1.37 | 83 | 1011.9 |
| 20260508011505 | 17 | 290 | 0.0 | 1.6 | 0.00 | 1.70 | 1.37 | 83 | 1011.9 |
| 20260508011005 | 17 | 290 | 0.0 | 1.6 | 0.00 | 1.78 | 1.37 | 83 | 1011.9 |
| 20260508010506 | 17 | 290 | 0.0 | 0.0 | 0.00 | 1.98 | 1.37 | 83 | 1011.9 |
| 20260508010007 | 17 | 290 | 0.0 | 1.6 | 0.00 | 1.98 | 1.37 | 82 | 1011.9 |
| 20260508005506 | 17 | 290 | 0.0 | 0.0 | 0.00 | 1.98 | 1.37 | 82 | 1011.9 |
| 20260508005005 | 17 | 290 | 0.0 | 0.0 | 0.00 | 1.98 | 1.37 | 82 | 1011.9 |
| 20260508004005 | 17 | 290 | 0.0 | 1.6 | 0.00 | 1.98 | 1.37 | 81 | 1011.9 |
| 20260508003505 | 17 | 290 | 0.0 | 3.2 | 0.00 | 1.98 | 1.37 | 80 | 1011.9 |
| 20260508003006 | 17 | 290 | 0.0 | 4.8 | 0.00 | 1.98 | 1.37 | 79 | 1011.9 |
| 20260508002505 | 17 | 296 | 1.6 | 3.2 | 0.00 | 1.98 | 1.37 | 79 | 1011.9 |
| 20260508002005 | 17 | 288 | 1.6 | 3.2 | 0.00 | 1.98 | 1.37 | 78 | 1011.9 |
| 20260508001505 | 18 | 297 | 1.6 | 8.0 | 0.00 | 1.98 | 1.37 | 77 | 1011.9 |
| 20260508001006 | 18 | 288 | 1.6 | 4.8 | 0.00 | 1.98 | 1.37 | 77 | 1011.9 |
| 20260508000506 | 18 | 286 | 3.2 | 8.0 | 0.00 | 1.98 | 1.37 | 76 | 1011.9 |
| 20260508000005 | 18 | 251 | 1.6 | 9.7 | 0.00 | 1.98 | 1.37 | 76 | 1011.9 |
| 20260507235007 | 18 | 274 | 4.8 | 9.7 | 0.00 | 1.98 | 1.37 | 74 | 1011.9 |
| 20260507234506 | 18 | 303 | 3.2 | 9.7 | 0.00 | 1.98 | 1.37 | 74 | 1011.9 |
| 20260507233505 | 18 | 311 | 3.2 | 9.7 | 0.00 | 1.98 | 1.37 | 74 | 1011.9 |
| 20260507233006 | 18 | 273 | 4.8 | 9.7 | 0.00 | 1.98 | 1.37 | 74 | 1011.9 |
| 20260507232506 | 18 | 298 | 3.2 | 12.9 | 0.00 | 1.98 | 1.37 | 74 | 1011.9 |
| 20260507232006 | 18 | 320 | 4.8 | 12.9 | 0.00 | 1.98 | 1.37 | 74 | 1011.9 |
| 20260507231004 | 19 | 290 | 4.8 | 14.5 | 0.00 | 1.98 | 1.37 | 73 | 1011.9 |
| 20260507230506 | 19 | 288 | 4.8 | 14.5 | 0.00 | 1.98 | 1.37 | 73 | 1011.9 |
| 20260507230005 | 19 | 284 | 4.8 | 16.1 | 0.00 | 1.98 | 1.37 | 74 | 1011.9 |
| 20260507225505 | 19 | 293 | 4.8 | 19.3 | 0.00 | 1.98 | 1.37 | 74 | 1011.9 |
| 20260507225006 | 19 | 321 | 3.2 | 19.3 | 0.00 | 1.98 | 1.37 | 75 | 1011.9 |
| 20260507224505 | 19 | 297 | 4.8 | 12.9 | 0.00 | 1.98 | 1.37 | 74 | 1011.9 |
| 20260507224006 | 19 | 277 | 3.2 | 9.7 | 0.00 | 1.98 | 1.37 | 74 | 1011.9 |
| 20260507223506 | 19 | 273 | 4.8 | 12.9 | 0.00 | 1.98 | 1.37 | 74 | 1011.9 |
| 20260507223006 | 20 | 286 | 4.8 | 19.3 | 0.00 | 1.98 | 1.37 | 74 | 1011.9 |
| 20260507222505 | 20 | 298 | 1.6 | 11.3 | 0.00 | 1.98 | 1.37 | 76 | 1011.9 |
| 20260507221505 | 20 | 297 | 3.2 | 12.9 | 0.00 | 1.98 | 1.37 | 76 | 1011.9 |
| 20260507221005 | 20 | 13 | 8.0 | 16.1 | 0.00 | 1.98 | 1.37 | 75 | 1011.9 |
| 20260507220505 | 20 | 346 | 6.4 | 12.9 | 0.00 | 1.98 | 1.37 | 75 | 1011.9 |
| 20260507220005 | 20 | 296 | 3.2 | 19.3 | 0.00 | 1.98 | 1.37 | 76 | 1011.9 |
| 20260507215506 | 20 | 307 | 4.8 | 19.3 | 0.00 | 1.98 | 1.37 | 77 | 1011.9 |
| 20260507215005 | 20 | 275 | 4.8 | 16.1 | 0.00 | 1.98 | 1.37 | 77 | 1011.9 |
| 20260507214506 | 20 | 298 | 8.0 | 16.1 | 0.00 | 1.98 | 1.37 | 77 | 1011.9 |
| 20260507214006 | 20 | 313 | 4.8 | 12.9 | 0.00 | 1.98 | 1.37 | 76 | 1011.9 |
| 20260507212504 | 20 | 242 | 6.4 | 16.1 | 0.00 | 1.98 | 1.37 | 77 | 1011.9 |
| 20260507211505 | 19 | 271 | 4.8 | 11.3 | 0.00 | 1.98 | 1.37 | 80 | 1011.9 |
| 20260507211005 | 19 | 343 | 4.8 | 12.9 | 0.00 | 1.98 | 1.37 | 79 | 1011.9 |
| 20260507210505 | 19 | 281 | 1.6 | 11.3 | 0.00 | 1.98 | 1.37 | 79 | 1011.9 |
| 20260507205504 | 19 | 310 | 3.2 | 9.7 | 0.00 | 1.98 | 1.37 | 81 | 1011.9 |
| 20260507205006 | 19 | 297 | 6.4 | 12.9 | 0.00 | 1.98 | 1.37 | 80 | 1011.9 |
| 20260507204505 | 19 | 283 | 4.8 | 11.3 | 0.00 | 1.98 | 1.37 | 81 | 1011.9 |
| 20260507204005 | 19 | 284 | 4.8 | 9.7 | 0.00 | 1.98 | 1.37 | 82 | 1011.9 |
| 20260507203506 | 18 | 26 | 4.8 | 8.0 | 0.00 | 1.98 | 1.37 | 82 | 1011.9 |
| 20260507203005 | 19 | 345 | 3.2 | 8.0 | 0.00 | 1.98 | 1.37 | 82 | 1012.0 |
| 20260507202505 | 19 | 335 | 3.2 | 11.3 | 0.00 | 1.98 | 1.37 | 82 | 1012.0 |
| 20260507202006 | 19 | 295 | 4.8 | 12.9 | 0.00 | 1.98 | 1.37 | 81 | 1012.0 |
| 20260507201505 | 19 | 273 | 4.8 | 11.3 | 0.00 | 1.98 | 1.37 | 82 | 1012.0 |
| 20260507201006 | 18 | 327 | 1.6 | 4.8 | 0.00 | 1.98 | 1.37 | 84 | 1012.0 |
| 20260507200505 | 18 | 18 | 0.0 | 4.8 | 0.00 | 1.98 | 1.37 | 85 | 1012.0 |
| 20260507200005 | 18 | 284 | 0.0 | 11.3 | 0.00 | 1.98 | 1.37 | 86 | 1012.0 |
| 20260507195504 | 18 | 319 | 4.8 | 11.3 | 0.00 | 1.98 | 1.37 | 85 | 1012.0 |
| 20260507195006 | 18 | 11 | 0.0 | 4.8 | 0.00 | 1.98 | 1.37 | 87 | 1012.0 |
| 20260507194005 | 18 | 289 | 6.4 | 14.5 | 0.00 | 1.98 | 1.37 | 86 | 1012.0 |
| 20260507193505 | 18 | 309 | 4.8 | 14.5 | 0.00 | 1.98 | 1.37 | 86 | 1012.0 |
| 20260507193005 | 17 | 289 | 3.2 | 11.3 | 0.00 | 1.98 | 1.37 | 86 | 1012.0 |
| 20260507192504 | 17 | 298 | 4.8 | 12.9 | 0.00 | 1.98 | 1.37 | 86 | 1012.0 |
| 20260507192005 | 18 | 269 | 3.2 | 9.7 | 0.00 | 1.98 | 1.37 | 88 | 1012.0 |
| 20260507191005 | 17 | 358 | 3.2 | 8.0 | 0.00 | 1.98 | 1.37 | 89 | 1012.0 |
| 20260507190505 | 17 | 332 | 3.2 | 8.0 | 0.00 | 1.98 | 1.37 | 89 | 1012.0 |
| 20260507185505 | 17 | 331 | 4.8 | 11.3 | 0.00 | 1.98 | 1.37 | 89 | 1012.0 |
| 20260507185005 | 17 | 311 | 4.8 | 16.1 | 0.00 | 1.98 | 1.37 | 88 | 1012.0 |
| 20260507184505 | 17 | 325 | 4.8 | 16.1 | 0.00 | 1.98 | 1.37 | 88 | 1012.0 |
| 20260507184005 | 17 | 353 | 3.2 | 8.0 | 0.00 | 1.98 | 1.37 | 88 | 1012.0 |
| 20260507183005 | 18 | 28 | 1.6 | 4.8 | 0.00 | 1.98 | 1.37 | 86 | 1012.0 |
| 20260507182505 | 18 | 334 | 3.2 | 11.3 | 0.00 | 1.98 | 1.37 | 86 | 1012.0 |
| 20260507182004 | 18 | 330 | 1.6 | 4.8 | 0.00 | 1.98 | 1.37 | 86 | 1012.0 |
| 20260507181504 | 18 | 314 | 1.6 | 8.0 | 0.00 | 1.98 | 1.37 | 86 | 1012.0 |
| 20260507181005 | 18 | 8 | 1.6 | 8.0 | 0.00 | 1.98 | 1.37 | 87 | 1012.0 |
| 20260507180505 | 18 | 337 | 3.2 | 8.0 | 0.00 | 1.98 | 1.37 | 87 | 1012.0 |
| 20260507180006 | 18 | 36 | 3.2 | 8.0 | 0.00 | 1.98 | 1.37 | 88 | 1011.8 |
| 20260507175506 | 18 | 304 | 3.2 | 9.7 | 0.00 | 1.98 | 1.37 | 88 | 1011.8 |
| 20260507175005 | 18 | 296 | 3.2 | 9.7 | 0.00 | 1.98 | 1.37 | 88 | 1011.8 |
| 20260507174505 | 18 | 3 | 4.8 | 12.9 | 0.00 | 1.98 | 1.37 | 88 | 1011.8 |
| 20260507174005 | 18 | 355 | 1.6 | 9.7 | 0.00 | 1.98 | 1.37 | 87 | 1011.8 |
| 20260507173006 | 19 | 300 | 3.2 | 14.5 | 0.00 | 1.98 | 1.37 | 86 | 1011.8 |
| 20260507172505 | 19 | 304 | 4.8 | 11.3 | 0.00 | 1.98 | 1.37 | 86 | 1011.8 |
| 20260507172005 | 19 | 296 | 3.2 | 14.5 | 0.00 | 1.98 | 1.37 | 86 | 1011.8 |
| 20260507171505 | 19 | 275 | 3.2 | 11.3 | 0.00 | 1.98 | 1.37 | 86 | 1011.8 |
| 20260507171005 | 19 | 295 | 4.8 | 9.7 | 0.00 | 1.98 | 1.37 | 86 | 1011.8 |
| 20260507170005 | 20 | 313 | 1.6 | 11.3 | 0.00 | 1.98 | 1.37 | 85 | 1011.8 |
| 20260507165506 | 20 | 299 | 4.8 | 11.3 | 0.00 | 1.98 | 1.37 | 85 | 1011.8 |
| 20260507165005 | 20 | 332 | 1.6 | 11.3 | 0.00 | 1.98 | 1.37 | 86 | 1011.7 |
| 20260507164505 | 20 | 291 | 1.6 | 11.3 | 0.00 | 1.98 | 1.37 | 86 | 1011.7 |
| 20260507164005 | 20 | 301 | 4.8 | 12.9 | 0.00 | 1.98 | 1.37 | 86 | 1011.7 |
| 20260507163505 | 20 | 22 | 1.6 | 4.8 | 0.00 | 1.98 | 1.37 | 85 | 1011.7 |
| 20260507162505 | 20 | 276 | 4.8 | 11.3 | 0.00 | 1.98 | 1.37 | 83 | 1011.0 |
| 20260507162005 | 20 | 263 | 3.2 | 9.7 | 0.00 | 1.98 | 1.37 | 85 | 1011.0 |
| 20260507161505 | 20 | 310 | 3.2 | 9.7 | 0.00 | 1.98 | 1.37 | 85 | 1011.0 |
| 20260507161005 | 20 | 291 | 4.8 | 11.3 | 0.00 | 1.98 | 1.37 | 86 | 1011.0 |
| 20260507160505 | 20 | 297 | 3.2 | 9.7 | 0.00 | 1.98 | 1.37 | 86 | 1011.0 |
| 20260507160005 | 20 | 286 | 1.6 | 11.3 | 0.00 | 1.98 | 1.37 | 86 | 1011.0 |
| 20260507155505 | 20 | 309 | 3.2 | 11.3 | 0.00 | 1.98 | 1.37 | 86 | 1011.0 |
| 20260507155005 | 20 | 296 | 8.0 | 12.9 | 0.00 | 1.98 | 1.37 | 85 | 1011.0 |
| 20260507154505 | 20 | 19 | 3.2 | 9.7 | 0.00 | 1.98 | 1.37 | 86 | 1011.0 |
| 20260507153006 | 20 | 298 | 6.4 | 11.3 | 0.00 | 1.98 | 1.37 | 85 | 1011.0 |
| 20260507152505 | 20 | 276 | 3.2 | 12.9 | 0.00 | 1.98 | 1.37 | 87 | 1011.0 |
| 20260507152005 | 20 | 302 | 3.2 | 12.9 | 0.00 | 1.98 | 1.37 | 89 | 1011.0 |
| 20260507151505 | 20 | 275 | 3.2 | 9.7 | 0.00 | 1.98 | 1.37 | 88 | 1011.0 |
| 20260507151006 | 20 | 345 | 3.2 | 4.8 | 0.00 | 1.98 | 1.37 | 87 | 1011.0 |
| 20260507150506 | 20 | 278 | 3.2 | 4.8 | 0.00 | 1.98 | 1.37 | 88 | 1011.0 |
| 20260507150006 | 20 | 7 | 3.2 | 8.0 | 0.00 | 1.98 | 1.37 | 90 | 1011.5 |
| 20260507145504 | 20 | 291 | 1.6 | 8.0 | 0.00 | 1.98 | 1.37 | 90 | 1011.5 |
| 20260507145005 | 20 | 269 | 3.2 | 9.7 | 0.00 | 1.98 | 1.37 | 90 | 1011.5 |
| 20260507144504 | 20 | 26 | 1.6 | 4.8 | 0.00 | 1.98 | 1.37 | 92 | 1011.5 |
| 20260507143005 | 18 | 297 | 1.6 | 8.0 | 0.00 | 1.98 | 1.37 | 93 | 1011.5 |
| 20260507142505 | 18 | 295 | 1.6 | 8.0 | 0.00 | 1.98 | 1.37 | 93 | 1011.5 |
| 20260507141505 | 18 | 262 | 1.6 | 4.8 | 0.00 | 1.98 | 1.37 | 94 | 1011.0 |
| 20260507141007 | 18 | 291 | 0.0 | 3.2 | 0.00 | 1.98 | 1.37 | 94 | 1011.0 |
| 20260507140505 | 18 | 21 | 0.0 | 1.6 | 0.00 | 1.98 | 1.37 | 94 | 1011.0 |
| 20260507135505 | 17 | 262 | 1.6 | 3.2 | 0.03 | 1.98 | 1.37 | 94 | 1011.0 |
| 20260507135005 | 17 | 284 | 1.6 | 4.8 | 0.03 | 1.98 | 1.37 | 94 | 1011.0 |